Time,TemperatureF,DewpointF,PressureIn,WindDirection,WindDirectionDegrees,WindSpeedMPH,WindSpeedGustMPH,Humidity,HourlyPrecipIn,Conditions,Clouds,dailyrainin,SoftwareType,DateUTC
2013-03-13 00:07:00,36.5,18.1,30.00,East,81,2.0,5.8,47,0.00,,,-99.99,FreeWX 2.04,2013-03-13 04:07:00,
2013-03-13 00:18:00,37.0,16.7,30.00,ESE,105,2.0,5.8,43,0.00,,,-99.99,FreeWX 2.04,2013-03-13 04:18:00,
2013-03-13 00:28:00,37.0,15.6,30.00,NE,47,1.0,4.5,41,0.00,,,-99.99,FreeWX 2.04,2013-03-13 04:28:00,
2013-03-13 00:38:00,36.7,15.3,30.00,North,-999,0.0,3.6,41,0.00,,,-99.99,FreeWX 2.04,2013-03-13 04:38:00,
2013-03-13 00:48:00,36.7,14.7,30.00,North,8,1.0,4.0,40,0.00,,,-99.99,FreeWX 2.04,2013-03-13 04:48:00,
2013-03-13 00:58:00,36.9,14.9,30.00,North,-999,0.0,4.0,40,0.00,,,-99.99,FreeWX 2.04,2013-03-13 04:58:00,
2013-03-13 01:08:00,37.0,14.9,30.03,NE,34,2.0,6.7,40,0.00,,,-99.99,FreeWX 2.04,2013-03-13 05:08:00,
2013-03-13 01:18:00,37.0,14.4,30.03,North,7,1.0,4.9,39,0.00,,,-99.99,FreeWX 2.04,2013-03-13 05:18:00,
2013-03-13 01:28:00,36.7,13.5,30.03,ENE,61,2.0,7.4,38,0.00,,,-99.99,FreeWX 2.04,2013-03-13 05:28:00,
2013-03-13 01:38:00,36.5,13.3,30.03,NNE,14,2.0,5.8,38,0.00,,,-99.99,FreeWX 2.04,2013-03-13 05:38:00,
2013-03-13 01:48:00,36.3,13.1,30.03,NNE,26,2.0,5.4,38,0.00,,,-99.99,FreeWX 2.04,2013-03-13 05:48:00,
2013-03-13 01:58:00,36.1,12.4,30.03,ESE,112,1.0,4.0,37,0.00,,,-99.99,FreeWX 2.04,2013-03-13 05:58:00,
2013-03-13 02:08:00,35.8,12.7,30.03,North,-999,0.0,4.0,38,0.00,,,-99.99,FreeWX 2.04,2013-03-13 06:08:00,
2013-03-13 02:18:00,35.4,12.4,30.03,North,-999,0.0,3.6,38,0.00,,,-99.99,FreeWX 2.04,2013-03-13 06:18:00,
2013-03-13 02:28:00,35.4,12.9,30.03,NE,50,1.0,4.5,39,0.00,,,-99.99,FreeWX 2.04,2013-03-13 06:28:00,
2013-03-13 02:38:00,35.1,12.6,30.03,East,89,1.0,6.3,39,0.00,,,-99.99,FreeWX 2.04,2013-03-13 06:38:00,
2013-03-13 02:48:00,35.4,13.5,30.03,ENE,76,2.0,5.8,40,0.00,,,-99.99,FreeWX 2.04,2013-03-13 06:48:00,
2013-03-13 02:58:00,35.4,12.9,30.03,NE,35,1.0,4.5,39,0.00,,,-99.99,FreeWX 2.04,2013-03-13 06:58:00,
2013-03-13 03:08:00,35.4,12.9,30.03,NE,51,2.0,4.9,39,0.00,,,-99.99,FreeWX 2.04,2013-03-13 07:08:00,
2013-03-13 03:18:00,35.4,12.4,30.03,East,84,3.0,5.4,38,0.00,,,-99.99,FreeWX 2.04,2013-03-13 07:18:00,
2013-03-13 03:28:00,35.1,12.0,30.03,SE,137,2.0,4.0,38,0.00,,,-99.99,FreeWX 2.04,2013-03-13 07:28:00,
2013-03-13 03:38:00,35.1,12.6,30.03,North,-999,0.0,3.6,39,0.00,,,-99.99,FreeWX 2.04,2013-03-13 07:38:00,
2013-03-13 03:48:00,34.9,13.1,30.03,North,-999,0.0,4.5,40,0.00,,,-99.99,FreeWX 2.04,2013-03-13 07:48:00,
2013-03-13 03:58:00,34.5,12.7,30.03,North,-999,0.0,0.0,40,0.00,,,-99.99,FreeWX 2.04,2013-03-13 07:58:00,
2013-03-13 04:08:00,34.2,12.9,30.00,North,-999,0.0,3.1,41,0.00,,,-99.99,FreeWX 2.04,2013-03-13 08:08:00,
2013-03-13 04:18:00,33.8,12.6,30.00,North,-999,0.0,3.6,41,0.00,,,-99.99,FreeWX 2.04,2013-03-13 08:18:00,
2013-03-13 04:28:00,33.4,12.9,30.00,North,-999,0.0,3.6,42,0.00,,,-99.99,FreeWX 2.04,2013-03-13 08:28:00,
2013-03-13 04:38:00,33.3,12.7,30.00,North,-999,0.0,0.0,42,0.00,,,-99.99,FreeWX 2.04,2013-03-13 08:38:00,
2013-03-13 04:48:00,32.9,12.9,30.00,North,-999,0.0,0.0,43,0.00,,,-99.99,FreeWX 2.04,2013-03-13 08:48:00,
2013-03-13 04:58:00,32.5,13.1,30.00,North,-999,0.0,0.0,44,0.00,,,-99.99,FreeWX 2.04,2013-03-13 08:58:00,
2013-03-13 05:08:00,32.0,12.0,30.00,North,-999,0.0,0.0,43,0.00,,,-99.99,FreeWX 2.04,2013-03-13 09:08:00,
2013-03-13 05:18:00,31.6,12.2,30.00,North,-999,0.0,0.0,44,0.00,,,-99.99,FreeWX 2.04,2013-03-13 09:18:00,
2013-03-13 05:28:00,31.8,12.9,30.00,North,-999,0.0,3.1,45,0.00,,,-99.99,FreeWX 2.04,2013-03-13 09:28:00,
2013-03-13 05:38:00,31.6,13.3,30.00,North,-999,0.0,4.5,46,0.00,,,-99.99,FreeWX 2.04,2013-03-13 09:38:00,
2013-03-13 05:48:00,31.5,14.5,30.00,North,-999,0.0,3.6,49,0.00,,,-99.99,FreeWX 2.04,2013-03-13 09:48:00,
2013-03-13 05:58:00,31.6,15.1,30.00,North,-999,0.0,0.0,50,0.00,,,-99.99,FreeWX 2.04,2013-03-13 09:58:00,
2013-03-13 06:08:00,32.2,16.2,30.00,North,-999,0.0,4.9,51,0.00,,,-99.99,FreeWX 2.04,2013-03-13 10:08:00,
2013-03-13 06:18:00,32.5,16.5,30.00,NE,37,1.0,4.5,51,0.00,,,-99.99,FreeWX 2.04,2013-03-13 10:18:00,
2013-03-13 06:28:00,32.7,16.7,30.00,NNE,20,1.0,4.9,51,0.00,,,-99.99,FreeWX 2.04,2013-03-13 10:28:00,
2013-03-13 06:38:00,33.3,17.1,30.00,North,357,1.0,5.8,51,0.00,,,-99.99,FreeWX 2.04,2013-03-13 10:38:00,
2013-03-13 06:48:00,33.3,16.7,30.00,North,-999,0.0,3.6,50,0.00,,,-99.99,FreeWX 2.04,2013-03-13 10:48:00,
2013-03-13 06:58:00,33.1,16.5,30.00,NE,45,1.0,5.4,50,0.00,,,-99.99,FreeWX 2.04,2013-03-13 10:58:00,
2013-03-13 07:08:00,33.3,16.7,30.03,ESE,106,1.0,5.4,50,0.00,,,-99.99,FreeWX 2.04,2013-03-13 11:08:00,
2013-03-13 07:18:00,33.4,16.9,30.03,NE,37,2.0,5.4,50,0.00,,,-99.99,FreeWX 2.04,2013-03-13 11:18:00,
2013-03-13 07:28:00,33.4,16.9,30.03,East,87,1.0,6.7,50,0.00,,,-99.99,FreeWX 2.04,2013-03-13 11:28:00,
2013-03-13 07:38:00,33.6,17.1,30.00,ENE,64,2.0,7.4,50,0.00,,,-99.99,FreeWX 2.04,2013-03-13 11:38:00,
2013-03-13 07:48:00,33.6,16.0,30.00,NE,45,2.0,6.9,48,0.00,,,-99.99,FreeWX 2.04,2013-03-13 11:48:00,
2013-03-13 07:58:00,33.6,15.6,30.00,NE,39,1.0,4.9,47,0.00,,,-99.99,FreeWX 2.04,2013-03-13 11:58:00,
2013-03-13 08:08:00,34.0,14.9,30.03,NE,38,3.0,11.2,45,0.00,,,-99.99,FreeWX 2.04,2013-03-13 12:08:00,
2013-03-13 08:18:00,34.3,15.3,30.03,North,5,2.0,8.3,45,0.00,,,-99.99,FreeWX 2.04,2013-03-13 12:18:00,
2013-03-13 08:28:00,34.7,14.0,30.03,NE,38,4.0,8.7,42,0.00,,,-99.99,FreeWX 2.04,2013-03-13 12:28:00,
2013-03-13 08:38:00,34.9,14.2,30.03,North,9,2.0,6.7,42,0.00,,,-99.99,FreeWX 2.04,2013-03-13 12:38:00,
2013-03-13 08:48:00,34.9,14.2,30.03,East,99,3.0,6.7,42,0.00,,,-99.99,FreeWX 2.04,2013-03-13 12:48:00,
2013-03-13 08:58:00,35.1,14.4,30.03,ENE,69,2.0,6.7,42,0.00,,,-99.99,FreeWX 2.04,2013-03-13 12:58:00,
2013-03-13 09:08:00,35.4,14.0,30.03,NNE,27,5.0,10.5,41,0.00,,,-99.99,FreeWX 2.04,2013-03-13 13:08:00,
2013-03-13 09:18:00,34.0,13.8,30.06,East,91,4.0,7.8,43,0.00,,,-99.99,FreeWX 2.04,2013-03-13 13:18:00,
2013-03-13 09:28:00,32.7,14.7,30.06,East,79,3.0,5.8,47,0.00,,,-99.99,FreeWX 2.04,2013-03-13 13:28:00,
2013-03-13 09:38:00,32.7,16.2,30.06,ENE,72,4.0,7.4,50,0.00,,,-99.99,FreeWX 2.04,2013-03-13 13:38:00,
2013-03-13 09:48:00,33.8,17.2,30.06,NE,38,3.0,8.3,50,0.00,,,-99.99,FreeWX 2.04,2013-03-13 13:48:00,
2013-03-13 09:58:00,35.4,15.3,30.06,SE,127,4.0,9.2,43,0.00,,,-99.99,FreeWX 2.04,2013-03-13 13:58:00,
2013-03-13 10:08:00,35.8,13.8,30.06,NE,37,4.0,9.6,40,0.00,,,-99.99,FreeWX 2.04,2013-03-13 14:08:00,
2013-03-13 10:18:00,36.7,12.9,30.06,NE,35,5.0,12.5,37,0.00,,,-99.99,FreeWX 2.04,2013-03-13 14:18:00,
2013-03-13 10:28:00,37.4,12.9,30.06,East,89,4.0,9.2,36,0.04,,,-99.99,FreeWX 2.04,2013-03-13 14:28:00,
2013-03-13 10:38:00,35.8,9.5,30.06,East,87,5.0,11.0,33,0.04,,,-99.99,FreeWX 2.04,2013-03-13 14:38:00,
2013-03-13 10:48:00,33.3,10.9,30.09,ENE,77,4.0,8.3,39,0.04,,,-99.99,FreeWX 2.04,2013-03-13 14:48:00,
2013-03-13 10:58:00,32.7,11.1,30.09,ESE,118,4.0,8.7,40,0.04,,,-99.99,FreeWX 2.04,2013-03-13 14:58:00,
2013-03-13 11:08:00,33.6,11.8,30.09,East,98,4.0,7.4,40,0.04,,,-99.99,FreeWX 2.04,2013-03-13 15:08:00,
2013-03-13 11:18:00,34.0,11.1,30.12,ESE,119,4.0,9.2,38,0.04,,,-99.99,FreeWX 2.04,2013-03-13 15:18:00,
2013-03-13 11:28:00,33.6,8.2,30.12,East,93,4.0,8.3,34,0.00,,,-99.99,FreeWX 2.04,2013-03-13 15:28:00,
2013-03-13 11:38:00,34.9,9.3,30.12,ESE,105,4.0,9.2,34,0.00,,,-99.99,FreeWX 2.04,2013-03-13 15:38:00,
2013-03-13 11:48:00,34.0,7.3,30.12,SE,139,4.0,8.3,32,0.00,,,-99.99,FreeWX 2.04,2013-03-13 15:48:00,
2013-03-13 11:58:00,33.8,7.2,30.12,East,91,4.0,6.7,32,0.00,,,-99.99,FreeWX 2.04,2013-03-13 15:58:00,
2013-03-13 12:08:00,34.0,7.9,30.12,SE,126,3.0,7.4,33,0.00,,,-99.99,FreeWX 2.04,2013-03-13 16:08:00,
2013-03-13 12:18:00,37.0,13.3,30.15,NNE,15,5.0,9.6,37,0.00,,,-99.99,FreeWX 2.04,2013-03-13 16:18:00,
2013-03-13 12:29:00,36.7,8.2,30.15,NE,35,5.0,11.6,30,0.00,,,-99.99,FreeWX 2.04,2013-03-13 16:29:00,
2013-03-13 12:39:00,34.5,8.4,30.15,ENE,73,4.0,8.3,33,0.00,,,-99.99,FreeWX 2.04,2013-03-13 16:39:00,
2013-03-13 12:49:00,34.3,10.8,30.15,NE,36,3.0,6.9,37,0.00,,,-99.99,FreeWX 2.04,2013-03-13 16:49:00,
2013-03-13 12:59:00,33.6,9.5,30.15,ESE,116,2.0,5.8,36,0.00,,,-99.99,FreeWX 2.04,2013-03-13 16:59:00,
2013-03-13 13:09:00,32.7,11.7,30.15,East,84,4.0,9.6,41,0.00,,,-99.99,FreeWX 2.04,2013-03-13 17:09:00,
2013-03-13 13:19:00,34.5,13.3,30.15,East,98,4.0,9.2,41,0.00,,,-99.99,FreeWX 2.04,2013-03-13 17:19:00,
2013-03-13 13:29:00,37.6,9.7,30.15,ESE,106,4.0,10.1,31,0.00,,,-99.99,FreeWX 2.04,2013-03-13 17:29:00,
2013-03-13 13:39:00,39.4,9.9,30.15,East,80,5.0,10.5,29,0.00,,,-99.99,FreeWX 2.04,2013-03-13 17:39:00,
2013-03-13 13:49:00,36.7,5.0,30.15,East,84,4.0,6.9,26,0.00,,,-99.99,FreeWX 2.04,2013-03-13 17:49:00,
2013-03-13 13:59:00,33.3,8.6,30.15,SE,124,4.0,8.3,35,0.00,,,-99.99,FreeWX 2.04,2013-03-13 17:59:00,
2013-03-13 14:09:00,33.8,9.7,30.15,SE,126,4.0,9.2,36,0.00,,,-99.99,FreeWX 2.04,2013-03-13 18:09:00,
2013-03-13 14:19:00,36.7,8.2,30.15,East,95,4.0,9.2,30,0.00,,,-99.99,FreeWX 2.04,2013-03-13 18:19:00,
2013-03-13 14:29:00,35.6,7.3,30.15,East,85,5.0,12.1,30,0.00,,,-99.99,FreeWX 2.04,2013-03-13 18:29:00,
2013-03-13 14:39:00,36.5,7.3,30.15,ESE,108,3.0,7.4,29,0.00,,,-99.99,FreeWX 2.04,2013-03-13 18:39:00,
2013-03-13 14:49:00,36.3,3.0,30.15,ESE,107,6.0,12.5,24,0.00,,,-99.99,FreeWX 2.04,2013-03-13 18:49:00,
2013-03-13 14:59:00,34.5,6.3,30.15,ESE,107,5.0,10.5,30,0.00,,,-99.99,FreeWX 2.04,2013-03-13 18:59:00,
2013-03-13 15:09:00,34.0,6.6,30.15,ENE,63,4.0,8.7,31,0.00,,,-99.99,FreeWX 2.04,2013-03-13 19:09:00,
2013-03-13 15:19:00,36.3,7.2,30.15,NE,55,3.0,6.7,29,0.00,,,-99.99,FreeWX 2.04,2013-03-13 19:19:00,
2013-03-13 15:29:00,35.6,5.0,30.15,East,101,4.0,10.5,27,0.00,,,-99.99,FreeWX 2.04,2013-03-13 19:29:00,
2013-03-13 15:39:00,34.7,4.1,30.18,NNE,24,4.0,11.2,27,0.00,,,-99.99,FreeWX 2.04,2013-03-13 19:39:00,
2013-03-13 15:49:00,35.4,2.3,30.18,NE,38,4.0,7.8,24,0.00,,,-99.99,FreeWX 2.04,2013-03-13 19:49:00,
2013-03-13 15:59:00,35.1,4.5,30.18,East,79,4.0,7.8,27,0.00,,,-99.99,FreeWX 2.04,2013-03-13 19:59:00,
2013-03-13 16:09:00,36.3,3.0,30.18,ENE,63,5.0,13.0,24,0.00,,,-99.99,FreeWX 2.04,2013-03-13 20:09:00,
2013-03-13 16:19:00,36.9,3.6,30.18,NNE,15,3.0,8.3,24,0.00,,,-99.99,FreeWX 2.04,2013-03-13 20:19:00,
2013-03-13 16:29:00,37.0,3.6,30.18,ENE,61,5.0,11.6,24,0.00,,,-99.99,FreeWX 2.04,2013-03-13 20:29:00,
2013-03-13 16:39:00,37.2,3.7,30.18,ENE,68,5.0,10.1,24,0.00,,,-99.99,FreeWX 2.04,2013-03-13 20:39:00,
2013-03-13 16:49:00,36.7,3.4,30.18,NNE,25,5.0,10.5,24,0.00,,,-99.99,FreeWX 2.04,2013-03-13 20:49:00,
2013-03-13 16:59:00,37.2,3.7,30.18,NE,48,6.0,12.5,24,0.00,,,-99.99,FreeWX 2.04,2013-03-13 20:59:00,
2013-03-13 17:09:00,37.6,4.1,30.18,NNE,16,5.0,9.6,24,0.00,,,-99.99,FreeWX 2.04,2013-03-13 21:09:00,
2013-03-13 17:29:00,36.0,2.7,30.18,NNE,33,5.0,11.6,24,0.00,,,-99.99,FreeWX 2.04,2013-03-13 21:29:00,
2013-03-13 17:39:00,37.0,3.6,30.18,NE,45,4.0,9.2,24,0.00,,,-99.99,FreeWX 2.04,2013-03-13 21:39:00,
2013-03-13 17:49:00,36.0,2.7,30.21,NE,50,4.0,11.6,24,0.00,,,-99.99,FreeWX 2.04,2013-03-13 21:49:00,
2013-03-13 17:59:00,35.2,2.1,30.21,ENE,72,4.0,7.8,24,0.00,,,-99.99,FreeWX 2.04,2013-03-13 21:59:00,
2013-03-13 18:09:00,35.6,2.5,30.21,ENE,72,3.0,8.7,24,0.00,,,-99.99,FreeWX 2.04,2013-03-13 22:09:00,
2013-03-13 18:19:00,35.1,1.9,30.21,NNE,19,4.0,7.4,24,0.00,,,-99.99,FreeWX 2.04,2013-03-13 22:19:00,
2013-03-13 18:29:00,34.3,2.3,30.21,NE,44,3.0,5.8,25,0.00,,,-99.99,FreeWX 2.04,2013-03-13 22:29:00,
2013-03-13 18:39:00,34.3,3.9,30.21,NE,51,3.0,9.2,27,0.00,,,-99.99,FreeWX 2.04,2013-03-13 22:39:00,
2013-03-13 18:49:00,34.3,3.9,30.21,East,90,3.0,7.8,27,0.00,,,-99.99,FreeWX 2.04,2013-03-13 22:49:00,
2013-03-13 18:59:00,34.0,3.6,30.21,NE,43,4.0,9.6,27,0.00,,,-99.99,FreeWX 2.04,2013-03-13 22:59:00,
2013-03-13 19:09:00,33.8,1.8,30.21,NNE,23,3.0,6.9,25,0.00,,,-99.99,FreeWX 2.04,2013-03-13 23:09:00,
2013-03-13 19:19:00,32.9,2.7,30.21,ESE,121,4.0,7.4,27,0.00,,,-99.99,FreeWX 2.04,2013-03-13 23:19:00,
2013-03-13 19:29:00,32.9,4.8,30.21,ESE,122,2.0,4.5,30,0.00,,,-99.99,FreeWX 2.04,2013-03-13 23:29:00,
2013-03-13 19:39:00,32.7,4.8,30.21,SE,125,2.0,5.4,30,0.00,,,-99.99,FreeWX 2.04,2013-03-13 23:39:00,
2013-03-13 19:49:00,32.7,4.8,30.24,NNE,22,1.0,4.0,30,0.00,,,-99.99,FreeWX 2.04,2013-03-13 23:49:00,
2013-03-13 19:59:00,32.9,5.5,30.24,North,5,2.0,6.3,31,0.00,,,-99.99,FreeWX 2.04,2013-03-13 23:59:00,
2013-03-13 20:09:00,32.7,4.8,30.24,ESE,106,2.0,7.4,30,0.00,,,-99.99,FreeWX 2.04,2013-03-14 00:09:00,
2013-03-13 20:19:00,32.7,4.8,30.24,ESE,122,2.0,5.8,30,0.00,,,-99.99,FreeWX 2.04,2013-03-14 00:19:00,
2013-03-13 20:29:00,32.7,3.2,30.24,NE,47,3.0,6.3,28,0.00,,,-99.99,FreeWX 2.04,2013-03-14 00:29:00,
2013-03-13 20:39:00,32.7,4.8,30.24,ENE,70,4.0,8.7,30,0.00,,,-99.99,FreeWX 2.04,2013-03-14 00:39:00,
2013-03-13 20:49:00,32.2,5.0,30.24,NE,36,3.0,8.7,31,0.00,,,-99.99,FreeWX 2.04,2013-03-14 00:49:00,
2013-03-13 20:59:00,32.0,4.8,30.24,ENE,65,3.0,5.4,31,0.00,,,-99.99,FreeWX 2.04,2013-03-14 00:59:00,
2013-03-13 21:09:00,31.5,4.3,30.24,NNE,26,4.0,8.3,31,0.00,,,-99.99,FreeWX 2.04,2013-03-14 01:09:00,
2013-03-13 21:19:00,31.5,4.3,30.24,East,86,2.0,6.9,31,0.00,,,-99.99,FreeWX 2.04,2013-03-14 01:19:00,
2013-03-13 21:29:00,31.5,5.0,30.24,NE,39,2.0,5.8,32,0.00,,,-99.99,FreeWX 2.04,2013-03-14 01:29:00,
2013-03-13 21:39:00,31.5,5.0,30.24,ENE,58,2.0,5.8,32,0.00,,,-99.99,FreeWX 2.04,2013-03-14 01:39:00,
2013-03-13 21:49:00,31.6,5.9,30.24,NNE,22,2.0,8.7,33,0.00,,,-99.99,FreeWX 2.04,2013-03-14 01:49:00,
2013-03-13 21:59:00,31.5,5.7,30.24,North,11,3.0,6.7,33,0.00,,,-99.99,FreeWX 2.04,2013-03-14 01:59:00,
2013-03-13 22:10:00,31.3,5.5,30.27,NNE,29,4.0,8.7,33,0.00,,,-99.99,FreeWX 2.04,2013-03-14 02:10:00,
2013-03-13 22:20:00,31.1,5.4,30.27,ENE,77,2.0,9.2,33,0.00,,,-99.99,FreeWX 2.04,2013-03-14 02:20:00,
2013-03-13 22:30:00,30.9,5.2,30.27,NNE,25,2.0,7.8,33,0.00,,,-99.99,FreeWX 2.04,2013-03-14 02:30:00,
2013-03-13 22:40:00,30.9,5.2,30.27,NNE,33,3.0,7.8,33,0.00,,,-99.99,FreeWX 2.04,2013-03-14 02:40:00,
2013-03-13 22:50:00,30.9,5.9,30.27,NE,44,3.0,5.4,34,0.00,,,-99.99,FreeWX 2.04,2013-03-14 02:50:00,
2013-03-13 23:00:00,30.9,5.9,30.27,ENE,66,2.0,6.9,34,0.00,,,-99.99,FreeWX 2.04,2013-03-14 03:00:00,
2013-03-13 23:10:00,30.9,5.9,30.27,East,91,3.0,6.3,34,0.00,,,-99.99,FreeWX 2.04,2013-03-14 03:10:00,
2013-03-13 23:20:00,30.6,5.5,30.27,ENE,63,3.0,8.3,34,0.00,,,-99.99,FreeWX 2.04,2013-03-14 03:20:00,
2013-03-13 23:30:00,30.4,5.4,30.27,NNE,21,3.0,6.3,34,0.00,,,-99.99,FreeWX 2.04,2013-03-14 03:30:00,
2013-03-13 23:40:00,30.4,6.1,30.27,NNE,28,3.0,8.3,35,0.00,,,-99.99,FreeWX 2.04,2013-03-14 03:40:00,
2013-03-13 23:50:00,30.4,6.6,30.27,East,91,3.0,6.7,36,0.00,,,-99.99,FreeWX 2.04,2013-03-14 03:50:00,